Location: Griffith Observatory
(34.1130°N, 118.3015°W)
Time: 09:46:26
(UTC-07:00)

Tiangong - Visible Passes

Search period start: 07 October 2024 00:00
Search period end: 17 October 2024 00:00
Orbit: 374 x 378 km, 41.5° (Epoch: 06 October)

Date Brightness Start Highest point End Pass type
(mag) Time Alt. Az. Time Alt. Az. Time Alt. Az.
13 Oct 1.1 06:22:07 10° SSE 06:22:43 10° SE 06:23:20 10° SE visible
15 Oct 0.4 05:50:48 10° S 05:53:01 18° SE 05:55:14 10° E visible
16 Oct -1.9 06:23:09 10° SW 06:26:12 68° SSE 06:29:16 10° ENE visible
